UAE9912 EHAM-LIMC

Flight info

Callsign UAE9912
Flight time N/A
Altitude 33000
Route EDUPO Z739 MISGO DCT ASBON DCT TUSUK DCT KRH/N0485F320 DCT NATOR/N0482F330 DCT TRA DCT RIPUS DCT GERSA DCT SOSON DCT DEGAD Z424 RIXUV
Aircraft B77L/H-SDE1E2E3FGHIJ2J3J4J5M1RWXY/LB1D1

Departure

Time 2026-05-01 15:31
Airport Amsterdam Airport Schiphol (EHAM)

Arrival

Time N/A
Airport Milan Malpensa International Airport (LIMC)
Time Latitude Longitude Altitude Speed Heading
2026-05-01 14:53 52.29556 4.76301 4 ft 0 kts 148°
2026-05-01 15:16 52.29571 4.76285 6 ft 3 kts 143°
2026-05-01 15:16 52.29600 4.76240 5 ft 3 kts 123°
2026-05-01 15:17 52.29612 4.76181 5 ft 3 kts 76°
2026-05-01 15:18 52.29610 4.76166 6 ft 0 kts 60°
2026-05-01 15:19 52.29618 4.76187 6 ft 6 kts 58°
2026-05-01 15:20 52.29711 4.76433 3 ft 14 kts 57°
2026-05-01 15:20 52.29763 4.76570 3 ft 14 kts 59°
2026-05-01 15:20 52.29816 4.76706 3 ft 14 kts 57°
2026-05-01 15:21 52.29875 4.76833 3 ft 14 kts 41°
2026-05-01 15:21 52.29945 4.76946 4 ft 14 kts 55°
2026-05-01 15:21 52.29998 4.77082 4 ft 14 kts 58°
2026-05-01 15:21 52.30050 4.77219 3 ft 14 kts 58°
2026-05-01 15:22 52.30163 4.77480 3 ft 14 kts 42°
2026-05-01 15:22 52.30249 4.77552 3 ft 14 kts 14°
2026-05-01 15:22 52.30347 4.77569 3 ft 14 kts
2026-05-01 15:23 52.30445 4.77578 3 ft 14 kts
2026-05-01 15:23 52.30542 4.77562 3 ft 14 kts 340°
2026-05-01 15:23 52.30638 4.77574 3 ft 14 kts 14°
2026-05-01 15:23 52.30735 4.77594 3 ft 14 kts
2026-05-01 15:24 52.30833 4.77604 3 ft 14 kts
2026-05-01 15:24 52.30932 4.77613 3 ft 14 kts
2026-05-01 15:24 52.31030 4.77621 3 ft 14 kts
2026-05-01 15:24 52.31128 4.77631 3 ft 14 kts
2026-05-01 15:25 52.31226 4.77639 3 ft 14 kts
2026-05-01 15:25 52.31324 4.77649 4 ft 14 kts
2026-05-01 15:25 52.31423 4.77652 4 ft 14 kts 351°
2026-05-01 15:25 52.31504 4.77571 3 ft 14 kts 314°
2026-05-01 15:26 52.31587 4.77493 3 ft 14 kts
2026-05-01 15:26 52.31672 4.77559 3 ft 14 kts 45°
2026-05-01 15:26 52.31740 4.77673 3 ft 14 kts 30°
2026-05-01 15:26 52.31839 4.77696 2 ft 15 kts
2026-05-01 15:27 52.31940 4.77706 3 ft 15 kts
2026-05-01 15:27 52.32032 4.77764 3 ft 15 kts 40°
2026-05-01 15:27 52.32099 4.77860 3 ft 12 kts 44°
2026-05-01 15:28 52.32126 4.77949 4 ft 2 kts 86°
2026-05-01 15:28 52.32116 4.77992 4 ft 7 kts 130°
2026-05-01 15:28 52.32075 4.78009 3 ft 0 kts 181°
2026-05-01 15:29 52.32071 4.78009 3 ft 5 kts 181°
2026-05-01 15:30 52.31312 4.77941 3 ft 119 kts 183°
2026-05-01 15:31 52.26665 4.78969 1423 ft 204 kts 138°
2026-05-01 15:31 52.25471 4.83360 2332 ft 239 kts 93°
2026-05-01 15:32 52.25414 4.89068 3618 ft 258 kts 95°
2026-05-01 15:32 52.25278 4.95019 5117 ft 268 kts 96°
2026-05-01 15:33 52.25037 5.04315 6826 ft 277 kts 96°
2026-05-01 15:34 52.24765 5.13863 9056 ft 285 kts 96°